Date,TemperatureHighF,TemperatureAvgF,TemperatureLowF,DewpointHighF,DewpointAvgF,DewpointLowF,HumidityHigh,HumidityAvg,HumidityLow,PressureMaxIn,PressureMinIn,WindSpeedMaxMPH,WindSpeedAvgMPH,GustSpeedMaxMPH,PrecipitationSumIn
2013-3-1,32.9,30.1,26.3,30.0,25.0,20.2,91,81,74,29.99,29.82,6,1,6,0.03
2013-3-2,31.1,27.0,25.0,22.8,21.1,19.4,85,78,66,29.97,29.91,5,1,5,0.01
2013-3-3,29.2,26.1,23.2,22.7,19.8,17.4,87,77,67,30.02,29.92,7,2,7,0.00
2013-3-4,38.5,28.4,21.6,21.3,18.3,16.3,85,67,47,30.12,30.01,8,1,8,0.02
2013-3-5,46.3,33.9,21.1,25.2,18.0,14.7,81,55,29,30.10,29.69,13,2,13,0.00
2013-3-6,41.6,35.7,31.5,32.9,29.2,26.5,92,78,63,30.12,29.69,8,1,8,0.25
2013-3-7,41.8,35.9,33.1,31.2,29.1,26.3,86,77,62,30.29,30.11,6,1,6,0.00
2013-3-8,37.6,33.7,29.7,28.8,26.5,23.2,82,75,67,30.41,30.29,8,2,8,0.00
2013-3-9,56.5,40.8,24.1,35.9,27.1,20.3,86,61,36,30.41,30.19,5,1,5,0.00
2013-3-10,72.7,56.0,42.8,39.2,30.4,24.2,50,39,25,30.19,30.02,8,2,8,0.00
2013-3-11,64.4,55.7,47.7,46.6,34.9,30.4,85,47,30,30.04,29.73,9,2,9,0.15
2013-3-12,47.7,40.1,36.4,43.4,33.2,27.3,87,76,67,30.02,29.80,9,1,9,0.05
2013-3-13,38.3,32.1,27.2,29.8,25.1,17.9,86,75,60,30.14,29.93,10,2,10,0.03
2013-3-14,38.9,31.0,24.5,20.7,18.7,16.6,76,61,44,30.22,30.13,10,2,10,0.00
2013-3-15,50.6,38.8,28.1,33.8,26.1,18.3,69,60,49,30.15,29.84,8,1,8,0.00
2013-3-16,40.7,36.7,33.3,37.2,33.6,29.3,91,89,82,29.98,29.66,6,1,6,0.06
2013-3-17,38.5,32.9,29.0,29.3,24.4,21.8,86,71,53,30.20,29.98,5,1,5,0.00
2013-3-18,40.3,34.6,30.6,35.2,29.4,22.0,91,82,69,30.17,29.71,10,3,10,0.43
2013-3-19,46.8,38.2,30.2,40.9,26.9,16.8,92,66,37,29.98,29.71,16,3,16,0.04
2013-3-20,41.9,32.2,26.6,22.6,18.2,15.4,69,57,40,29.98,29.82,14,2,14,0.00
2013-3-21,31.3,24.8,19.1,20.0,13.2,7.2,79,62,43,29.91,29.86,8,2,8,0.00
2013-3-22,35.6,29.1,24.8,21.3,18.9,16.6,77,66,53,30.04,29.90,7,1,7,0.00
2013-3-23,48.6,34.1,21.4,26.0,20.9,15.3,79,60,37,30.05,29.99,6,1,6,0.00
2013-3-24,45.7,34.3,27.4,28.8,23.1,19.7,84,65,41,30.02,29.55,14,3,14,0.00
2013-3-25,39.1,34.2,31.3,33.8,30.8,28.4,91,87,80,29.76,29.47,9,1,9,0.51
2013-3-26,42.8,35.9,32.2,33.1,30.8,29.3,92,82,66,30.09,29.76,8,2,8,0.15
2013-3-27,43.0,36.5,32.4,32.0,29.0,24.1,92,76,49,30.17,30.07,9,1,9,0.10
2013-3-28,44.5,38.6,34.2,31.1,29.2,27.7,84,69,55,30.28,30.13,8,1,8,0.00
2013-3-29,55.8,43.7,37.3,34.9,27.4,21.9,74,55,31,30.28,30.17,8,1,8,0.00
2013-3-30,59.9,44.0,28.1,30.6,23.7,19.4,72,47,25,30.27,30.05,5,0,5,0.00
2013-3-31,51.7,46.3,42.7,44.8,34.8,21.0,85,66,39,30.05,29.76,4,0,4,0.12